Location: Trois-Rivi�res
(46.3500°N, 72.5500°W)
Time: 12:17:23
(UTC-05:00)

OTV 5 (USA 277) - Pass Details

Date: 09 October 2017
Orbit: 404 x 417 km, 43.0° (Epoch: 07 September)

Event Time Altitude Azimuth Distance (km) Brightness Sun altitude
Rises 20:34:53 0° 235° (SW) 2,348 ? -24.9°
Reaches altitude 10° 20:37:09 10° 224° (SW) 1,486 ? -25.2°
Enters shadow 20:37:20 11° 222° (SW) 1,420 ? -25.3°
